[[{"header":{"parameterUnit":"m.s-1","parameterCategory":1,"la1":30.2991,"la2":30.254,"lo1":-89.0895,"lo2":-89.0444,"dy":0.0017,"dx":0.0017,"nx":28,"ny":28,"refTime":"2025-01-27T09:00:00:Z","depth":0,"parameterNumber":2,"parameterNumberName":"U-component_of_WINDS"},"data":[0,0,0,0,0,0,0,0,0,0,0,0,0,0,0,0,0,0,0,0,0,0,0,0,0,0,0,0,0,0,0,0,0,0,0,0,0,0,0,0,0,0,0,0,0,0,0,0,0,0,0,0,0,0,0,0,0,0,-1.0994,-1.0995,0,-1.1044,-1.1044,-1.1045,-1.1044,-1.1043,-1.1043,-1.1042,-1.1094,-1.1096,-1.1098,0,0,0,0,0,0,0,0,0,0,0,0,0,-1.09,-1.0902,-1.0994,-1.0995,-1.0995,-1.1043,-1.1044,-1.1045,-1.1044,-1.1043,-1.1043,-1.1042,-1.1093,-1.1095,-1.1098,0,0,0,0,0,0,0,0,0,0,0,0,0,-1.0944,-1.0902,-1.0994,-1.1001,-1.1002,-1.1043,-1.1044,-1.1045,-1.1044,-1.1043,-1.1042,-1.1042,-1.1092,-1.1095,-1.1098,-1.1136,0,0,-1.1107,-1.1108,0,0,0,0,0,0,0,0,-1.0942,-1.0948,-1.0999,-1.1,-1.1002,-1.1037,-1.103,-1.1076,-1.1045,-1.1028,-1.1042,-1.1041,-1.1076,-1.108,-1.1091,-1.1139,-1.1141,-1.1107,-1.1109,-1.1111,-1.1111,0,0,0,0,0,0,0,-1.0939,-1.0945,-1.1014,-1.1,-1.1001,-1.1002,-1.1007,-1.1038,-1.1057,-1.103,-1.103,-1.1036,-1.1076,-1.1088,-1.1093,-1.1142,-1.1107,-1.111,-1.1112,-1.1113,-1.1222,-1.1223,0,0,0,0,0,0,-1.0934,-1.0943,-1.1012,-1.1015,-1.0969,-1.1004,-1.101,-1.1026,-1.1057,-1.106,-1.1036,-1.1035,-1.1084,-1.1089,-1.1094,-1.114,-1.1111,-1.1113,-1.1115,-1.1221,-1.1222,-1.1223,0,0,0,0,0,0,-1.0932,-1.094,-1.101,-1.0979,-1.0988,-1.1007,-1.1025,-1.1028,-1.104,-1.1062,-1.1065,-1.1045,-1.1083,-1.109,-1.1126,-1.1142,-1.1115,-1.1117,-1.1219,-1.1221,-1.1223,-1.1232,0,0,0,0,0,0,-1.0929,-1.0939,-1.0954,-1.0979,-1.099,-1.104,-1.1026,-1.103,-1.1045,-1.1044,-1.1071,-1.1075,-1.1083,-1.1121,-1.1128,-1.1145,-1.112,-1.1218,-1.122,-1.1222,-1.123,-1.1234,-1.1237,0,0,0,0,0,-1.0926,-1.0955,-1.0955,-1.0963,-1.1008,-1.1041,-1.1047,-1.1056,-1.1047,-1.1061,-1.1075,-1.1074,-1.1139,-1.1125,-1.1133,-1.1151,-1.1217,-1.1219,-1.1222,-1.1229,-1.1233,-1.1237,0,0,0,0,0,0,-1.0931,-1.0958,-1.0958,-1.0997,-1.1017,-1.1041,-1.106,-1.106,-1.1084,-1.1082,-1.1092,-1.1098,-1.1133,-1.1146,-1.113,-1.1189,-1.1177,-1.1181,-1.1179,-1.1183,-1.1187,-1.1182,-1.1122,0,0,0,0,0,-1.0937,-1.0961,-1.0984,-1.1015,-1.1025,-1.1041,-1.1056,-1.1061,-1.1082,-1.109,-1.1107,-1.1128,-1.1153,-1.1169,-1.1193,-1.1233,-1.1238,-1.1249,-1.1252,-1.1255,-1.1258,-1.1278,-1.1283,-1.1231,-1.1231,-1.1231,0,0,-1.0949,-1.0967,-1.0982,-1.1017,-1.1033,-1.1058,-1.1048,-1.1075,-1.1093,-1.1095,-1.1128,-1.1141,-1.1165,-1.1202,-1.122,-1.1214,-1.1274,-1.1258,-1.126,-1.1262,-1.1281,-1.1286,-1.1291,-1.1233,-1.1233,-1.1232,0,0,-1.0983,-1.0999,-1.1027,-1.1043,-1.1067,-1.1077,-1.1084,-1.1108,-1.1117,-1.1151,-1.1152,-1.1174,-1.1218,-1.1234,-1.1249,-1.1289,-1.1288,-1.1297,-1.1313,-1.1333,-1.1337,-1.134,-1.1354,-1.1358,-1.13,-1.13,-1.13,0,-1.0995,-1.1032,-1.1041,-1.1068,-1.1083,-1.1085,-1.1113,-1.1128,-1.1159,-1.117,-1.1163,-1.1217,-1.1234,-1.1274,-1.1283,-1.1295,-1.1303,-1.1293,-1.1335,-1.1339,-1.1343,-1.1355,-1.136,-1.1301,-1.1301,-1.1301,-1.1301,0,-1.1044,-1.107,-1.109,-1.1119,-1.1137,-1.1164,-1.1177,-1.1194,-1.1198,-1.1208,-1.1243,-1.1263,-1.129,-1.1301,-1.1305,-1.1342,-1.1337,-1.1333,-1.1321,-1.1348,-1.136,-1.1365,-1.1302,-1.1302,-1.1301,-1.1301,0,0,-1.1083,-1.1116,-1.1123,-1.1136,-1.1163,-1.1183,-1.121,-1.1237,-1.1251,-1.1273,-1.1295,-1.1332,-1.1328,-1.1344,-1.135,-1.1368,-1.1397,-1.1361,-1.1362,-1.1366,-1.1437,-1.1439,-1.1445,-1.1397,-1.1398,-1.1399,-1.1435,0,-1.1118,-1.1166,-1.1175,-1.1216,-1.124,-1.1242,-1.1266,-1.1285,-1.1296,-1.1318,-1.133,-1.1355,-1.1349,-1.1358,-1.1376,-1.1389,-1.1411,-1.1387,-1.1418,-1.1419,-1.141,-1.1451,-1.1453,-1.1486,-1.144,-1.144,-1.1441,0,-1.1166,-1.1188,-1.1232,-1.1255,-1.1265,-1.1286,-1.1311,-1.1332,-1.1353,-1.136,-1.1378,-1.1382,-1.141,-1.1398,-1.1436,-1.142,-1.1433,-1.1442,-1.1443,-1.1445,-1.143,-1.1453,-1.1497,-1.1501,-1.1449,-1.1448,-1.1448,0,-1.1188,-1.1229,-1.126,-1.1271,-1.1299,-1.1313,-1.1326,-1.1346,-1.1362,-1.1384,-1.1394,-1.1419,-1.1433,-1.1452,-1.1463,-1.1453,-1.1501,-1.1489,-1.1507,-1.1506,-1.1515,-1.1514,-1.1561,-1.1526,-1.1526,-1.1526,-1.1526,0,-1.1226,-1.1252,-1.1269,-1.1288,-1.1318,-1.1328,-1.1357,-1.1369,-1.1388,-1.1409,-1.1413,-1.1433,-1.1447,-1.1469,-1.1478,-1.1508,-1.1515,-1.1521,-1.1522,-1.1519,-1.1518,-1.1527,-1.1525,-1.1528,-1.1527,-1.1527,-1.1527,0,-1.1255,-1.1267,-1.1301,-1.1325,-1.1331,-1.1352,-1.1372,-1.139,-1.1401,-1.1428,-1.1435,-1.1453,-1.1479,-1.1492,-1.1525,-1.153,-1.1564,-1.1565,-1.1556,-1.1557,-1.1573,-1.157,-1.1625,-1.1632,-1.1594,-1.1595,-1.1595,0,-1.1278,-1.1298,-1.1323,-1.1337,-1.135,-1.1373,-1.1388,-1.14,-1.1416,-1.1441,-1.1457,-1.1483,-1.1504,-1.1546,-1.1561,-1.1586,-1.1587,-1.1605,-1.1591,-1.1587,-1.1586,-1.1584,-1.1585,-1.1607,-1.1607,-1.1607,-1.1608,0,-1.1316,-1.1321,-1.1343,-1.1367,-1.1385,-1.1405,-1.1424,-1.1436,-1.145,-1.1468,-1.1494,-1.1511,-1.1544,-1.1569,-1.1595,-1.1608,-1.161,-1.1612,-1.1617,-1.1613,-1.1607,-1.1609,-1.1561,-1.161,-1.161,-1.161,-1.161,-1.161,-1.1342,-1.1359,-1.1379,-1.1403,-1.1419,-1.1437,-1.1455,-1.1468,-1.149,-1.1517,-1.1523,-1.1551,-1.1571,-1.1606,-1.162,-1.1642,-1.1638,-1.1646,-1.1648,-1.1649,-1.1649,-1.1604,-1.1647,-1.1647,-1.1647,-1.1647,-1.1647,0,-1.1379,-1.1392,-1.1414,-1.1441,-1.146,-1.146,-1.1481,-1.1497,-1.1521,-1.154,-1.1561,-1.1591,-1.1616,-1.1633,-1.1659,-1.1673,-1.1674,-1.1679,-1.1677,-1.168,-1.1652,-1.1644,-1.1677,-1.1677,-1.1677,-1.1677,-1.1677,-1.1677,-1.1401,-1.143,-1.1438,-1.1475,-1.1488,-1.1514,-1.1526,-1.1543,-1.1558,-1.1591,-1.1611,-1.1622,-1.1641,-1.1668,-1.169,-1.1695,-1.1703,-1.1708,-1.1712,-1.1685,-1.1682,-1.1679,-1.1672,-1.171,-1.171,-1.1738,-1.1739,-1.1739]},{"header":{"parameterUnit":"m.s-1","parameterCategory":1,"la1":30.2991,"la2":30.254,"lo1":-89.0895,"lo2":-89.0444,"dy":0.0017,"dx":0.0017,"nx":28,"ny":28,"refTime":"2025-01-27T09:00:00:Z","depth":0,"parameterNumber":3,"parameterNumberName":"V-component_of_WINDS"},"data":[0,0,0,0,0,0,0,0,0,0,0,0,0,0,0,0,0,0,0,0,0,0,0,0,0,0,0,0,0,0,0,0,0,0,0,0,0,0,0,0,0,0,0,0,0,0,0,0,0,0,0,0,0,0,0,0,0,0,1.3354,1.3354,0,1.3378,1.3378,1.3379,1.3349,1.3348,1.3347,1.3346,1.337,1.3372,1.3374,0,0,0,0,0,0,0,0,0,0,0,0,0,1.3283,1.3284,1.3354,1.3354,1.3355,1.3378,1.3378,1.3379,1.335,1.3348,1.3347,1.3346,1.337,1.3372,1.3374,0,0,0,0,0,0,0,0,0,0,0,0,0,1.3311,1.3285,1.3354,1.3343,1.3342,1.3378,1.3378,1.3379,1.335,1.3348,1.3347,1.3345,1.3369,1.3372,1.3374,1.3422,0,0,1.3382,1.3383,0,0,0,0,0,0,0,0,1.3309,1.3314,1.3344,1.3344,1.3343,1.3359,1.3362,1.3393,1.335,1.3347,1.3346,1.3344,1.3368,1.337,1.3378,1.3423,1.3424,1.3382,1.3383,1.3384,1.3385,0,0,0,0,0,0,0,1.3307,1.3312,1.3363,1.3345,1.3344,1.3337,1.3339,1.3368,1.3366,1.3347,1.3345,1.3348,1.3367,1.3376,1.3379,1.3424,1.3382,1.3384,1.3385,1.3386,1.3509,1.3511,0,0,0,0,0,0,1.3307,1.3311,1.3363,1.3364,1.3322,1.3339,1.3342,1.3356,1.3366,1.3366,1.335,1.3347,1.3373,1.3376,1.338,1.3436,1.3384,1.3387,1.3388,1.3507,1.3509,1.3511,0,0,0,0,0,0,1.3305,1.3312,1.3362,1.3337,1.3343,1.3342,1.3358,1.3357,1.3366,1.3368,1.3367,1.3359,1.3372,1.3376,1.3411,1.3437,1.3388,1.339,1.3505,1.3508,1.351,1.355,0,0,0,0,0,0,1.3303,1.3311,1.333,1.3338,1.3344,1.3394,1.3359,1.3359,1.337,1.3367,1.3376,1.3377,1.3371,1.3408,1.3414,1.3439,1.3392,1.3503,1.3506,1.3509,1.3547,1.3554,1.356,0,0,0,0,0,1.3301,1.334,1.3331,1.3337,1.3367,1.3395,1.3399,1.3392,1.3372,1.3391,1.3392,1.3376,1.3433,1.3412,1.3418,1.3445,1.3501,1.3505,1.3509,1.3544,1.3552,1.356,0,0,0,0,0,0,1.3334,1.334,1.3331,1.3373,1.3384,1.339,1.3413,1.3401,1.3417,1.3414,1.3403,1.3406,1.3444,1.3448,1.3424,1.3491,1.3464,1.3469,1.3488,1.3496,1.3503,1.3501,1.3394,0,0,0,0,0,1.3346,1.3369,1.3373,1.341,1.3416,1.3414,1.3426,1.3419,1.343,1.3434,1.3438,1.3449,1.3469,1.3483,1.3501,1.3547,1.3549,1.3568,1.3575,1.358,1.3585,1.361,1.3619,1.3524,1.3524,1.3524,0,0,1.3372,1.3378,1.3393,1.3417,1.3424,1.3448,1.3418,1.3444,1.3461,1.3438,1.3472,1.3475,1.3487,1.3527,1.3545,1.3532,1.3612,1.3585,1.359,1.3592,1.3615,1.3624,1.3632,1.3527,1.3527,1.3526,0,0,1.3431,1.3438,1.3469,1.3478,1.349,1.3488,1.3496,1.3504,1.3505,1.3539,1.3522,1.3543,1.3578,1.3587,1.3596,1.3658,1.3645,1.3665,1.37,1.3724,1.3732,1.3738,1.3761,1.377,1.3669,1.367,1.367,0,1.3461,1.3496,1.3487,1.3515,1.3526,1.3506,1.3538,1.3547,1.3564,1.3572,1.3557,1.36,1.3607,1.365,1.3665,1.3673,1.3681,1.3664,1.3731,1.3738,1.3744,1.3766,1.3774,1.3672,1.3672,1.3671,1.3671,0,1.3533,1.3558,1.3582,1.36,1.3613,1.3643,1.3639,1.3654,1.3646,1.3646,1.368,1.3687,1.3707,1.3717,1.3709,1.3759,1.375,1.3733,1.3705,1.3756,1.3776,1.3784,1.3675,1.3674,1.3674,1.3673,0,0,1.3614,1.3627,1.3636,1.3644,1.3655,1.3674,1.3703,1.3723,1.3736,1.3748,1.3773,1.3803,1.3787,1.3798,1.3791,1.3812,1.3862,1.3793,1.3793,1.3806,1.3918,1.3931,1.3941,1.3853,1.3854,1.3855,1.3917,0,1.3674,1.3724,1.3717,1.3765,1.3788,1.3769,1.3794,1.3804,1.3805,1.3824,1.3824,1.3846,1.3824,1.383,1.385,1.3852,1.3884,1.3847,1.3875,1.3877,1.3874,1.3951,1.3965,1.4023,1.3925,1.3926,1.3927,0,1.375,1.3766,1.3817,1.3825,1.3835,1.3857,1.3875,1.3893,1.3904,1.3903,1.3915,1.3904,1.3933,1.3904,1.3944,1.3919,1.393,1.3932,1.3934,1.3937,1.3906,1.3957,1.4042,1.4051,1.3939,1.3938,1.3938,0,1.3805,1.3839,1.3874,1.3881,1.3892,1.3908,1.3913,1.3923,1.3935,1.395,1.3958,1.3977,1.3987,1.4002,1.3996,1.3976,1.4037,1.4008,1.4038,1.4038,1.4052,1.4052,1.414,1.4058,1.4058,1.4058,1.4057,0,1.3873,1.3905,1.3899,1.3921,1.3956,1.3947,1.3982,1.3985,1.3993,1.4015,1.4,1.402,1.4012,1.4032,1.4028,1.4062,1.4066,1.4066,1.4065,1.4068,1.4068,1.4076,1.4072,1.406,1.4059,1.4059,1.4059,0,1.3941,1.3938,1.3975,1.3982,1.3984,1.401,1.4016,1.4037,1.4036,1.4064,1.4069,1.4068,1.4091,1.4087,1.4112,1.411,1.4152,1.4146,1.4149,1.4148,1.4178,1.4176,1.4276,1.4289,1.4197,1.4198,1.4199,0,1.3985,1.4009,1.4019,1.4033,1.4039,1.4061,1.4074,1.4066,1.408,1.4094,1.4113,1.4134,1.4151,1.4189,1.419,1.421,1.4204,1.4237,1.4207,1.4209,1.4205,1.4204,1.4207,1.4244,1.4245,1.4246,1.4246,0,1.4064,1.4061,1.408,1.4099,1.4115,1.4129,1.4141,1.4153,1.4147,1.4163,1.4186,1.42,1.4226,1.4248,1.4266,1.4271,1.4258,1.4256,1.4264,1.4268,1.427,1.427,1.4167,1.4254,1.4253,1.4253,1.4252,1.4252,1.4122,1.4143,1.4153,1.4175,1.4183,1.4196,1.4215,1.4217,1.4236,1.4257,1.4251,1.4278,1.4288,1.4311,1.4318,1.4339,1.4327,1.4338,1.4341,1.4344,1.4349,1.4265,1.4342,1.4342,1.4342,1.4342,1.4341,0,1.42,1.4206,1.4226,1.4245,1.4262,1.4248,1.4261,1.4277,1.43,1.4311,1.4328,1.4355,1.4376,1.4379,1.4399,1.4416,1.441,1.4421,1.4421,1.4422,1.4358,1.435,1.4425,1.4425,1.4425,1.4425,1.4425,1.4425,1.4243,1.4278,1.4277,1.4316,1.4321,1.4348,1.4357,1.4368,1.4376,1.4408,1.4425,1.4427,1.4435,1.4455,1.4474,1.4474,1.4483,1.4496,1.4494,1.4435,1.4426,1.4418,1.441,1.4498,1.4498,1.4557,1.4557,1.4558]}]]